{"data":{"norad_id":66349,"intl_designator":"2025-254B","name":"STARLINK-35848","alt_names":[],"object_type":"PAYLOAD","status":"ACTIVE","operator":null,"country":"US","launch_date":"2025-11-06","launch_site_code":"AFWTR","launch_vehicle":null,"mission":null,"orbit_class":"UNKNOWN","rcs_meters":null,"size_class":null,"mass_kg":null,"dimensions":null,"purposes":["comms"],"wikipedia_slug":null,"has_3d_model":false,"image_url":null,"decayed_at":null,"tle_current":{"epoch":"2026-05-24T23:12:09.842112Z","epoch_age_seconds":71878,"freshness":"FRESH","line1":"1 66349U 25254B   26144.96678058  .00013258  00000+0  45895-3 0  9994","line2":"2 66349  53.1562 238.1840 0001062  86.8975 273.2148 15.30199060 30655","mean_motion":15.3019906,"eccentricity":0.0001062,"inclination_deg":53.1562,"raan_deg":238.184,"arg_perigee_deg":86.8975,"mean_anomaly_deg":273.2148,"bstar":0.00045895,"rev_number":3065,"period_min":94.105403515279,"perigee_km":474.49004980348,"apogee_km":475.94570237917,"semimajor_km":6853.3548760913,"source":"CELESTRAK","updated_at":"2026-05-25T13:38:21.173347Z"}}}